Location: Devore Heights
(34.2372°N, 117.4156°W)
Time: 06:25:56
(UTC+00:00)

ARIANE 6 FM1 Upper Stage - Pass Details

Date: 23 August 2024
Orbit: 567 x 594 km, 62.0° (Epoch: 06 September)

Event Time Altitude Azimuth Distance (km) Brightness Sun altitude
Exits shadow 11:29:28 57° 192° (SSW) 689 2.8 -21.3°
Maximum altitude 11:30:17 78° 121° (ESE) 598 2.7 -21.2°
Drops below altitude 10° 11:34:36 10° 35° (NE) 1,912 6.3 -20.4°
Sets 11:36:52 0° 34° (NE) 2,820 7.4 -20.0°
